This demonstration page uses our WeatherBlox Daily Observations layout. Learn more.

Left ArrowRight Arrow

Hourly Observations for August 26, 2020

Temp ( °F °C ) Dew Point ( °F °C ) Humidity (%) Winds ( mph kmh ) Pressure ( in mb ) Visibility ( mi km ) Precip ( " mm )
12:53 am 00:53 Clear 71 21.7 57 13.9 61 61 S 8 13 29.91 1013 10 16 0.00 0.00
1:53 am 01:53 Clear 71 21.7 56 13.3 59 59 SSW 7 11 29.90 1013 10 16 0.00 0.00
2:53 am 02:53 Clear 69 20.6 56 13.3 63 63 S 7 11 29.89 1012 10 16 0.00 0.00
3:53 am 03:53 Clear 67 19.4 57 13.9 71 71 S 6 9 29.89 1012 10 16 0.00 0.00
4:53 am 04:53 Clear 68 20 57 13.9 68 68 SSW 7 11 29.89 1012 10 16 0.00 0.00
5:53 am 05:53 Clear 66 18.9 57 13.9 73 73 S 7 11 29.89 1012 10 16 0.00 0.00
6:53 am 06:53 Clear 65 18.3 58 14.4 78 78 S 8 13 29.90 1012 10 16 0.00 0.00
7:53 am 07:53 Sunny 66 18.9 59 15 78 78 S 9 15 29.90 1013 10 16 0.00 0.00
8:53 am 08:53 Sunny 73 22.8 60 15.6 64 64 SSW 12 19 29.88 1012 10 16 0.00 0.00
9:53 am 09:53 Sunny 78 25.6 61 16.1 56 56 SSW 14 22 29.87 1012 10 16 0.00 0.00
10:53 am 10:53 Sunny 82 27.8 61 16.1 49 49 SSW 16 26 29.86 1011 10 16 0.00 0.00
11:53 am 11:53 Sunny 85 29.4 61 16.1 45 45 SSW 18 30 29.85 1011 10 16 0.00 0.00
12:53 pm 12:53 Sunny 89 31.7 59 15 36 36 SSW 16 26 29.83 1010 10 16 0.00 0.00
1:53 pm 13:53 Sunny 91 32.8 58 14.4 33 33 S 15 24 29.81 1010 10 16 0.00 0.00
2:53 pm 14:53 Sunny 93 33.9 58 14.4 31 31 SSW 13 20 29.80 1009 10 16 0.00 0.00
3:53 pm 15:53 Sunny 94 34.4 58 14.4 30 30 S 13 20 29.79 1009 10 16 0.00 0.00
4:53 pm 16:53 Sunny 93 33.9 60 15.6 33 33 S 12 19 29.78 1008 10 16 0.00 0.00
5:53 pm 17:53 Sunny 92 33.3 60 15.6 34 34 S 13 20 29.77 1008 10 16 0.00 0.00
6:53 pm 18:53 Sunny 90 32.2 60 15.6 37 37 S 9 15 29.77 1008 10 16 0.00 0.00
7:53 pm 19:53 Sunny 86 30 60 15.6 42 42 S 8 13 29.78 1008 10 16 0.00 0.00
8:53 pm 20:53 Clear 82 27.8 60 15.6 47 47 SSE 10 17 29.77 1008 10 16 0.00 0.00
9:53 pm 21:53 Clear 79 26.1 60 15.6 52 52 S 8 13 29.78 1008 10 16 0.00 0.00
10:53 pm 22:53 Clear 76 24.4 60 15.6 58 58 S 6 9 29.79 1009 10 16 0.00 0.00
11:53 pm 23:53 Clear 75 23.9 59 15 58 58 S 7 11 29.80 1009 10 16 0.00 0.00

Powered by AerisWeather